Angel Fire, NM

7:03 PM MDT on September 19, 2019 (GMT -0600)
Angel Fire

Weather History for KAXX - August, 2019

Change the Weather History Date:

Sunday, August 25, 2019

  Actual Average (KSKX) Record (KSKX)
Temperature  
Mean Temperature 56 °F -  
Max Temperature 81 °F 79 °F 89 °F (2002)
Min Temperature 30 °F 46 °F 39 °F (2002)
Degree Days  
Heating Degree Days 10    
Growing Degree Days 6 (Base 50)    
Moisture  
Dew Point 33 °F    
Average Humidity 46    
Maximum Humidity 91    
Minimum Humidity 16    
Precipitation  
Precipitation 0.00 in - - ()
Sea Level Pressure  
Sea Level Pressure 30.31 in    
Wind  
Wind Speed 4 mph (West)    
Max Wind Speed 20 mph    
Max Gust Speed 26 mph    
Visibility 10 miles    
Events      
Averages and records for this station are not official NWS values.
T = Trace of Precipitation, MM = Missing Value Source: NWS Daily Summary

Daily Weather History Graph

Daily Weather History Graph

Search for Another Location

Airport or City:

Astronomy

Aug. 25, 2019 Rise Set
Actual Time 6:26 AM MDT 7:39 PM MDT
Civil Twilight 6:00 AM MDT 8:05 PM MDT
Nautical Twilight 5:28 AM MDT 8:37 PM MDT
Astronomical Twilight 4:54 AM MDT 9:10 PM MDT
Moon 1:08 AM MDT (8/25) 3:56 PM MDT (8/25)
Length of Visible Light 14h 05m
Length of Day
13h 12m
Waning Crescent, 28% of the Moon is Illuminated
Aug 25
Waning Crescent
Aug 30
New
Sep 5
First Quarter
Sep 13
Full
Sep 21
Last Quarter

Hourly Weather History & Observations

Time (MDT) Temp. Windchill Dew Point Humidity Pressure Visibility Wind Dir Wind Speed Gust Speed Precip Events Conditions
12:15 AM 43.3 °F 41.7 °F 34.0 °F 70% 30.34 in 10.0 mi SE 3.5 mph - N/A   Clear
12:35 AM 42.4 °F - 34.0 °F 72% 30.34 in 10.0 mi Calm Calm - N/A   Clear
12:55 AM 40.1 °F - 33.1 °F 76% 30.34 in 10.0 mi Calm Calm - N/A   Clear
1:15 AM 42.3 °F - 33.6 °F 71% 30.33 in 10.0 mi Calm Calm - N/A   Clear
1:35 AM 39.9 °F 37.8 °F 32.5 °F 75% 30.33 in 10.0 mi South 3.5 mph - N/A   Clear
1:55 AM 40.5 °F - 32.7 °F 74% 30.33 in 10.0 mi Calm Calm - N/A   Clear
2:15 AM 35.2 °F - 31.5 °F 86% 30.33 in 10.0 mi Calm Calm - N/A   Clear
2:35 AM 38.3 °F - 32.0 °F 78% 30.33 in 10.0 mi Calm Calm - N/A   Clear
2:55 AM 35.1 °F - 30.6 °F 84% 30.33 in 10.0 mi Calm Calm - N/A   Clear
3:15 AM 35.6 °F - 31.1 °F 84% 30.33 in 10.0 mi Calm Calm - N/A   Clear
3:35 AM 36.1 °F - 30.7 °F 81% 30.31 in 10.0 mi Calm Calm - N/A   Clear
3:55 AM 34.2 °F - 31.5 °F 90% 30.31 in 10.0 mi Calm Calm - N/A   Clear
4:15 AM 33.6 °F - 31.3 °F 91% 30.33 in 10.0 mi Calm Calm - N/A   Clear
4:35 AM 34.2 °F - 29.7 °F 84% 30.33 in 10.0 mi Calm Calm - N/A   Clear
4:55 AM 32.4 °F - 30.0 °F 91% 30.33 in 10.0 mi Calm Calm - N/A   Clear
5:15 AM 33.6 °F - 30.0 °F 87% 30.33 in 10.0 mi Calm Calm - N/A   Clear
5:35 AM 32.0 °F - 29.1 °F 89% 30.34 in 10.0 mi Calm Calm - N/A   Clear
5:55 AM 32.2 °F 28.9 °F 28.8 °F 87% 30.34 in 10.0 mi SSE 3.5 mph - N/A   Clear
6:15 AM 30.6 °F - 28.0 °F 90% 30.34 in 10.0 mi Calm Calm - N/A   Clear
6:35 AM 32.4 °F - 29.5 °F 89% 30.35 in 10.0 mi Calm Calm - N/A   Clear
6:55 AM 31.8 °F - 29.3 °F 90% 30.36 in 10.0 mi Calm Calm - N/A   Clear
7:15 AM 36.3 °F - 32.0 °F 84% 30.36 in 10.0 mi Calm Calm - N/A   Clear
7:35 AM 41.0 °F - 34.3 °F 77% 30.36 in 10.0 mi Calm Calm - N/A   Clear
7:55 AM 44.4 °F - 34.7 °F 69% 30.37 in 10.0 mi Calm Calm - N/A   Clear
8:15 AM 48.0 °F - 36.5 °F 64% 30.37 in 10.0 mi Calm Calm - N/A   Clear
8:35 AM 51.4 °F - 37.6 °F 59% 30.37 in 10.0 mi Calm Calm - N/A   Clear
8:55 AM 56.7 °F - 38.7 °F 51% 30.37 in 10.0 mi Calm Calm - N/A   Clear
9:15 AM 59.7 °F - 40.3 °F 49% 30.37 in 10.0 mi Calm Calm - N/A   Clear
9:35 AM 64.2 °F - 40.6 °F 42% 30.37 in 10.0 mi Calm Calm - N/A   Clear
9:55 AM 69.3 °F - 38.5 °F 32% 30.36 in 10.0 mi Calm Calm - N/A   Clear
10:15 AM 73.0 °F - 35.6 °F 25% 30.36 in 10.0 mi Calm Calm - N/A   Clear
10:35 AM 75.0 °F - 35.1 °F 23% 30.35 in 10.0 mi NW 5.8 mph - N/A   Clear
10:55 AM 75.2 °F - 34.5 °F 23% 30.35 in 10.0 mi SSE 3.5 mph - N/A   Clear
11:15 AM 76.8 °F - 32.9 °F 20% 30.35 in 10.0 mi NE 8.1 mph - N/A   Clear
11:35 AM 77.7 °F - 34.5 °F 21% 30.35 in 10.0 mi NNE 9.2 mph - N/A   Clear
11:55 AM 76.8 °F - 33.4 °F 21% 30.34 in 10.0 mi NNE 12.7 mph 16.1 mph N/A   Clear
12:15 PM 77.5 °F - 35.4 °F 22% 30.34 in 10.0 mi WNW 12.7 mph - N/A   Clear
12:35 PM 77.5 °F - 32.0 °F 19% 30.33 in 10.0 mi WNW 15.0 mph 19.6 mph N/A   Clear
12:55 PM 78.6 °F - 32.5 °F 19% 30.32 in 10.0 mi WNW 8.1 mph 19.6 mph N/A   Clear
1:15 PM 79.3 °F - 32.5 °F 18% 30.32 in 10.0 mi WNW 10.4 mph 16.1 mph N/A   Clear
1:30 PM 79.7 °F - 33.6 °F 19% 30.31 in 10.0 mi WNW 13.8 mph - N/A   Clear
1:55 PM 79.7 °F - 31.5 °F 17% 30.31 in 10.0 mi Calm Calm - N/A   Clear
2:15 PM 81.5 °F - 34.0 °F 18% 30.30 in 10.0 mi WSW 8.1 mph - N/A   Clear
2:35 PM 80.1 °F - 34.2 °F 19% 30.29 in 10.0 mi West 9.2 mph 18.4 mph N/A   Clear
2:55 PM 80.6 °F - 33.8 °F 18% 30.29 in 10.0 mi West 10.4 mph 16.1 mph N/A   Clear
3:15 PM 79.9 °F - 34.9 °F 20% 30.29 in 10.0 mi West 15.0 mph 20.7 mph N/A   Clear
3:35 PM 80.1 °F - 33.1 °F 18% 30.28 in 10.0 mi WSW 13.8 mph 21.9 mph N/A   Clear
3:55 PM 80.6 °F - 33.3 °F 18% 30.28 in 10.0 mi West 19.6 mph 26.5 mph N/A   Clear
4:15 PM 80.1 °F - 33.6 °F 19% 30.28 in 10.0 mi WNW 11.5 mph 19.6 mph N/A   Clear
4:35 PM 80.6 °F - 31.3 °F 17% 30.27 in 10.0 mi WSW 15.0 mph - N/A   Clear
4:55 PM 80.2 °F - 30.2 °F 16% 30.27 in 10.0 mi SSW 5.8 mph - N/A   Clear
5:15 PM 80.8 °F - 30.7 °F 16% 30.25 in 10.0 mi WNW 8.1 mph - N/A   Clear
5:35 PM 79.9 °F - 32.7 °F 18% 30.25 in 10.0 mi West 12.7 mph 25.3 mph N/A   Scattered Clouds
5:55 PM 79.3 °F - 30.2 °F 17% 30.25 in 10.0 mi WSW 15.0 mph 24.2 mph N/A   Clear
6:15 PM 78.8 °F - 29.7 °F 17% 30.25 in 10.0 mi West 17.3 mph 23.0 mph N/A   Clear
6:35 PM 77.2 °F - 30.4 °F 18% 30.25 in 10.0 mi West 10.4 mph 15.0 mph N/A   Clear
6:55 PM 75.0 °F - 32.7 °F 21% 30.25 in 10.0 mi WSW 11.5 mph 17.3 mph N/A   Clear
7:15 PM 73.9 °F - 31.6 °F 21% 30.25 in 10.0 mi West 10.4 mph - N/A   Clear
7:35 PM 70.3 °F - 31.3 °F 24% 30.25 in 10.0 mi West 6.9 mph - N/A   Clear
7:55 PM 66.7 °F - 31.3 °F 27% 30.26 in 10.0 mi West 4.6 mph - N/A   Clear
8:15 PM 58.6 °F - 34.7 °F 41% 30.26 in 10.0 mi WNW 6.9 mph - N/A   Clear
8:35 PM 56.5 °F - 34.2 °F 43% 30.27 in 10.0 mi West 6.9 mph - N/A   Clear
8:55 PM 60.8 °F - 31.6 °F 33% 30.27 in 10.0 mi West 11.5 mph - N/A   Clear
9:15 PM 67.1 °F - 30.0 °F 25% 30.28 in 10.0 mi West 11.5 mph - N/A   Clear
9:35 PM 65.1 °F - 30.4 °F 27% 30.28 in 10.0 mi West 11.5 mph - N/A   Clear
9:55 PM 63.1 °F - 30.7 °F 30% 30.28 in 10.0 mi West 9.2 mph - N/A   Clear
10:15 PM 61.7 °F - 30.7 °F 31% 30.29 in 10.0 mi West 6.9 mph - N/A   Clear
10:35 PM 60.3 °F - 30.4 °F 32% 30.28 in 10.0 mi Calm Calm - N/A   Clear
10:55 PM 52.9 °F - 33.3 °F 47% 30.28 in 10.0 mi Calm Calm - N/A   Clear
11:15 PM 54.3 °F - 32.7 °F 44% 30.28 in 10.0 mi Calm Calm - N/A   Clear
11:35 PM 54.0 °F - 32.2 °F 44% 30.28 in 10.0 mi Calm Calm - N/A   Clear
11:55 PM 53.4 °F - 32.4 °F 45% 30.28 in 10.0 mi Calm Calm - N/A   Clear